RH
36 39 43 46 47 48 48 47 46 46 45 45 44 42 40 38 36 34 32 31 31 30 30 29 29 29 29 28 27 26 24 23 22 20 19 18 18 17 17 17 17 17 17 17 17 18 18 19 19 20 20 20 20 21 21 22 23 23 24 24 25 25 25 24 24 23 23 23 23
42 46 48 49 49 49 48 47 47 46 46 45 44 42 40 37 35 33 32 30 30 29 29 30 30 30 29 28 27 25 24 22 21 20 19 18 18 18 18 18 17 18 18 18 18 19 19 20 20 20 21 21 21 22 22 23 24 24 25 25 25 25 25 24 24 24 23 23 23
48 50 50 50 49 48 47 46 46 46 46 45 44 42 39 37 35 33 31 30 29 29 30 30 30 30 29 28 26 24 23 21 20 20 19 19 19 19 19 18 18 18 19 19 19 20 20 21 21 21 22 22 22 23 23 24 24 25 26 26 26 25 25 24 24 23 23 22 21
51 50 50 48 47 47 46 46 46 46 45 45 43 41 39 37 34 32 31 30 29 29 30 30 30 29 28 27 25 23 22 21 20 20 20 20 20 20 20 19 19 20 20 20 21 21 21 22 22 22 23 23 23 24 25 25 26 26 26 26 26 25 25 24 23 22 22 21 20
50 49 48 47 47 47 47 47 46 46 45 44 43 41 39 36 34 32 30 30 29 29 30 30 30 29 28 26 24 23 21 20 20 20 20 21 21 20 21 20 21 21 21 22 22 22 22 23 23 23 24 24 25 25 25 26 26 27 27 26 26 25 24 22 22 21 20 19 18
49 47 47 47 47 47 47 47 46 46 45 44 43 41 39 36 34 32 30 30 29 30 30 30 29 28 27 25 24 23 22 21 21 21 22 22 22 22 22 22 22 22 22 22 23 23 23 24 24 24 25 25 26 26 26 27 27 27 26 26 25 23 22 20 19 18 17 17 16
47 46 46 46 47 47 47 47 46 46 46 45 43 41 39 36 34 32 30 30 30 30 30 29 28 27 26 24 23 23 22 22 23 23 23 23 23 23 23 23 23 23 23 23 23 24 24 25 25 26 26 27 27 27 27 27 27 26 25 24 23 21 20 18 17 16 15 14 14
46 46 46 47 46 47 46 47 47 46 46 45 43 41 39 36 34 32 30 29 29 29 29 28 27 26 25 24 24 23 23 24 24 24 24 24 24 24 24 24 24 24 24 24 24 25 25 26 27 27 28 28 28 28 27 27 26 25 23 22 20 19 17 15 14 14 13 13 13
46 46 46 46 46 46 47 47 47 47 46 45 43 41 39 36 33 32 30 29 28 28 28 28 27 26 25 24 24 24 24 25 25 25 25 25 25 25 25 24 24 24 25 25 25 26 27 27 28 28 28 28 28 27 26 25 24 22 21 19 18 16 14 13 12 12 12 12 12
45 46 46 46 46 47 48 48 48 48 46 45 43 40 38 35 33 31 30 29 29 28 28 27 27 26 25 25 25 25 26 26 26 26 26 26 26 26 25 25 25 25 25 26 27 27 28 29 29 28 28 28 27 26 24 23 21 20 18 17 15 14 12 11 11 11 11 12 13
45 45 45 46 47 48 48 49 48 48 46 45 42 39 36 34 32 31 30 30 29 28 27 27 26 26 26 26 26 26 26 27 27 27 27 27 26 26 26 26 26 26 27 28 28 29 29 29 29 28 27 26 24 23 22 20 19 17 16 15 14 12 12 11 11 11 12 13 14
45 45 46 47 48 49 49 49 49 48 46 43 41 38 35 33 31 30 30 29 28 28 27 27 27 26 26 26 26 27 27 27 27 27 27 27 27 27 27 27 27 28 28 29 29 29 29 28 27 26 25 23 22 20 19 18 17 16 15 14 13 12 12 11 11 12 12 13 14
45 46 47 48 49 49 50 49 48 47 45 42 39 36 34 32 31 30 30 29 28 28 27 27 27 27 27 27 27 27 27 28 28 28 27 28 27 28 28 28 29 29 29 29 29 29 28 26 25 23 22 21 19 18 17 16 16 15 15 14 14 13 13 12 12 12 13 14 15
46 47 48 49 50 51 50 49 48 46 43 41 38 35 33 31 30 30 29 29 28 28 28 27 27 27 27 27 28 28 28 28 28 28 28 28 28 29 29 29 30 30 30 29 28 27 25 24 22 21 20 18 18 17 16 16 16 16 15 15 14 13 13 12 12 12 13 14 15
47 48 50 51 51 51 50 49 47 44 42 39 36 34 32 30 30 29 29 29 29 28 28 28 28 28 28 28 28 28 28 28 28 28 29 29 29 29 30 30 30 30 29 27 26 24 23 21 20 19 18 17 17 17 17 17 17 17 16 16 14 13 12 12 12 13 14 15 16
48 50 51 52 51 51 49 47 46 43 41 38 35 33 31 30 30 29 29 29 29 29 28 28 28 28 28 28 28 29 29 29 29 29 29 29 30 30 30 30 29 28 27 25 23 21 20 19 18 17 17 17 17 17 18 18 17 17 16 15 14 12 12 12 13 14 15 17 17
49 50 51 52 51 50 48 46 44 42 40 37 35 33 31 30 30 30 30 30 30 29 29 28 28 28 29 29 29 29 29 30 30 30 30 30 30 30 30 29 28 26 24 22 21 19 18 17 17 17 17 18 18 18 18 18 17 17 15 14 13 13 13 13 14 16 17 18 18
50 51 51 51 50 48 47 45 43 41 39 37 35 33 32 31 31 31 30 30 30 30 29 29 29 29 30 30 30 30 30 31 30 30 30 30 30 29 28 27 25 23 22 20 19 18 17 17 17 18 18 18 19 19 19 18 17 16 15 14 14 14 14 15 16 17 18 18 19
49 50 50 49 48 47 45 44 42 40 39 37 35 34 33 32 32 31 31 30 30 30 30 30 30 30 31 31 31 31 31 31 31 31 30 30 29 28 27 25 23 21 19 18 18 18 18 18 18 18 18 19 19 19 19 18 18 17 16 15 15 15 16 16 17 18 18 19 19
49 49 49 48 47 46 45 43 42 40 39 37 36 34 33 33 32 32 31 31 30 30 30 30 31 31 32 32 32 32 31 31 31 31 30 29 28 26 24 22 20 19 18 18 18 18 18 18 19 19 19 19 20 20 19 19 18 17 17 17 17 17 18 18 18 19 19 19 19
48 48 48 47 46 45 44 43 41 40 39 37 36 35 34 33 32 32 31 30 30 31 31 32 32 32 33 32 32 32 32 31 31 30 29 28 25 23 22 20 19 19 19 18 19 19 19 19 19 19 20 21 21 21 20 20 19 19 19 19 19 19 19 20 20 20 20 19 19
47 48 47 47 46 44 43 43 41 40 39 38 36 35 34 33 32 31 31 31 31 32 32 33 33 33 33 33 33 32 32 31 30 29 27 25 23 21 20 19 19 19 19 19 19 19 19 20 20 21 22 22 22 22 22 22 21 21 21 21 21 21 21 21 21 20 20 20 20
47 47 46 46 45 44 44 43 42 41 39 38 36 35 34 33 32 31 31 31 32 33 33 33 33 33 33 33 33 32 31 30 28 26 24 22 21 20 19 19 19 19 19 19 19 20 20 21 22 22 23 24 24 23 23 23 23 22 22 22 22 22 21 21 21 20 20 20 20
46 46 46 45 45 45 44 43 42 41 39 38 36 35 34 33 32 32 32 33 33 34 34 34 34 33 33 33 32 31 30 28 26 24 22 20 19 19 19 19 19 19 20 20 21 21 22 23 23 24 25 25 25 25 24 24 24 23 23 23 23 22 21 21 20 20 20 20 21
46 46 46 45 45 45 44 43 42 40 39 37 36 35 34 33 33 33 34 34 34 35 35 34 34 33 33 32 31 29 28 25 23 22 20 19 19 19 19 19 20 20 21 21 22 23 24 25 25 26 26 26 26 26 25 25 24 24 24 23 23 22 21 21 20 20 21 21 22
46 46 46 46 45 45 44 43 41 39 37 36 35 34 33 33 33 34 35 35 35 35 35 34 33 33 32 31 29 27 25 23 21 20 20 19 19 19 20 20 21 22 22 23 24 24 25 26 26 27 28 27 27 26 26 25 25 24 23 23 22 22 21 21 21 21 22 23 23
46 47 47 46 46 45 44 42 39 37 36 35 34 34 34 34 35 35 36 36 35 35 34 34 33 32 30 28 26 24 22 21 20 20 20 20 20 20 20 21 22 23 24 25 25 25 26 27 27 28 28 28 27 26 25 25 24 23 23 22 22 22 22 22 22 22 23 24 24
47 47 47 47 46 45 43 40 38 36 35 34 34 34 34 35 36 37 36 36 35 35 34 33 31 29 28 26 24 22 21 20 20 20 20 20 21 21 22 23 24 25 26 26 26 26 27 27 28 28 28 27 26 26 25 24 23 23 22 22 22 22 22 23 23 24 24 24 23
48 48 47 47 46 44 41 38 36 35 34 34 34 35 36 37 37 37 37 36 35 34 32 31 29 27 25 23 22 21 20 20 20 21 21 21 22 22 24 25 26 27 27 27 27 27 27 28 28 28 28 26 26 25 24 23 23 22 22 22 23 23 23 24 24 24 24 23 23
48 48 47 47 45 42 39 37 35 34 34 34 35 36 37 38 38 37 36 35 34 32 30 28 26 24 23 22 21 21 21 20 21 21 22 22 23 24 25 26 27 28 28 27 27 27 28 28 28 27 26 26 25 24 24 23 23 23 23 23 23 24 24 24 24 24 23 23 23
48 47 47 45 42 40 37 35 35 35 34 35 36 37 38 39 38 37 35 33 31 30 28 25 24 23 22 21 21 21 21 21 22 22 23 24 25 26 27 27 28 28 28 27 27 27 27 27 27 26 25 25 25 24 24 24 24 24 24 24 24 24 25 24 24 24 23 23 24
47 46 44 42 40 38 36 35 35 35 36 37 38 39 39 39 37 35 33 31 29 27 25 23 22 22 21 21 21 21 22 22 23 23 24 25 26 27 28 28 28 28 28 27 27 27 27 26 26 25 24 24 25 25 25 25 25 25 25 25 25 25 25 25 24 24 24 25 27
46 44 42 39 37 36 35 35 35 36 37 38 40 39 39 37 35 33 31 29 27 25 23 22 22 22 21 21 22 22 23 23 24 25 26 27 27 28 28 29 28 28 27 27 27 26 26 25 25 24 24 25 26 26 26 26 26 26 26 26 26 25 25 24 24 25 26 28 30
43 40 38 36 35 34 34 35 36 37 38 40 40 39 37 35 33 30 28 26 25 23 22 22 22 22 22 22 23 23 23 24 25 26 27 28 28 29 29 29 28 28 27 27 26 26 25 25 24 24 25 26 27 27 27 27 27 27 26 26 25 25 25 25 26 26 28 30 32
39 37 35 34 34 34 35 35 37 38 39 40 39 37 35 32 30 27 26 24 23 23 22 22 22 22 23 23 23 24 24 25 26 27 28 29 29 29 29 29 28 28 27 27 27 26 25 25 25 25 26 28 28 28 27 27 27 26 26 26 26 26 26 26 27 28 30 32 35
36 34 34 34 34 35 35 37 38 39 40 39 37 34 32 29 27 25 24 23 23 22 22 22 23 23 23 23 24 25 26 27 27 28 29 29 29 29 29 29 29 28 28 27 26 26 25 25 25 26 27 28 28 28 27 27 27 26 26 26 26 26 27 28 29 30 32 35 37
33 33 34 35 35 36 37 38 40 40 39 37 34 31 28 26 25 24 23 23 23 23 23 23 23 23 24 24 25 26 27 28 29 29 30 30 30 30 30 30 29 29 28 27 27 26 25 25 26 27 28 28 28 28 27 27 26 26 26 26 26 27 28 29 31 32 34 36 38
33 33 34 35 36 37 39 40 40 39 37 34 31 28 26 24 23 23 23 23 23 23 23 23 24 24 24 25 26 27 28 29 30 30 30 31 31 31 31 30 30 29 28 28 27 26 26 26 27 28 29 28 28 27 27 27 26 26 26 26 27 28 29 31 32 34 36 38 39
34 34 35 36 37 39 40 40 39 37 34 31 28 25 24 23 22 23 23 24 24 24 24 24 24 25 25 26 27 28 29 30 30 31 31 32 32 32 32 31 31 30 29 28 27 26 26 26 27 28 29 28 28 27 27 26 26 26 27 27 28 29 30 32 34 36 37 38 39
34 35 36 37 39 40 40 39 37 34 31 27 25 24 23 22 23 23 24 24 25 25 25 25 25 25 26 27 28 29 29 30 30 31 32 32 32 32 32 32 31 30 29 28 27 26 26 27 28 28 29 28 28 27 27 27 27 27 27 28 29 31 32 33 35 37 38 38 40
35 36 37 39 40 40 39 37 34 31 27 25 23 23 22 23 23 24 25 26 26 26 25 25 26 27 27 28 29 29 30 30 31 31 32 32 33 33 33 32 31 30 29 28 27 27 27 28 28 28 29 28 28 27 27 27 27 28 29 30 31 32 34 35 37 38 39 40 41